Find OneWeb SL0572

NORAD ID: 55151 Int'l Des: 2023-004 Owner: ONEWEBN Country: UK Constellation: oneweb operational
別名: ONEWEB-0572 spacetrack, celestrak
LEOCIRCULARPOLARONEWEB_TYPE

現在のビュー

3D地球を読み込み中...

About OneWeb SL0572

OneWeb SL0572 (NORAD 55151) is a oneweb constellation satellite launched Jan 10, 2023 by ONEWEBN of UK. It operates in LEO, CIRCULAR, POLAR, ONEWEB_TYPE orbit with a mass of 148.00 kg.

次回通過

Passes for default location (London). Set your location on the main map for personalized predictions.

高度履歴

Loading altitude history...

軌道要素

1 55151U 23004M 26265.71762321 -.00000267 00000-0 -72058-3 0 9998
2 55151 87.9200 346.4994 0001778 103.1180 257.0150 13.17647919180323
Epoch: Sep 22, 2026 • Age: 16 hours

現在のステータス

高度 1199.1 km
遠地点 / 近地点 N/A
速度 7.25 km/s
衛星直下点 -12.59°S, 32.98°E
打ち上げ日 Jan 10, 2023
運用期間 3.7 years
タイプ internet

技術仕様

分類 Payload
質量 148.00 kg
乾燥質量 140.00 kg
長さ 1.30 m
直径 1.00 m
スパン 5.00 m
形状 ? Trapezoid+2 pan
製造者 ONEWUS
バスタイプ ARROW
フェーズステータス In Orbit
所有者/国 ONEWEBN/UK

Most Searched